Наро-Фоминск

Россия / Московская область     55°23′03″N   36°43′23″E
темп.,
°C
ветер,
м/с
пор.,
м/с
влажн.,
%
обл.,
%
осадки,
мм/ч
давл.,
гПа
погр.,
м
15 апреля, чт
чт1500:00+11вюв1159100 0.0 101611
03:00+9в226695 0.0 101611
06:00+9св1166100 0.0 101610
09:00+13в2555100 0.0 1017297
12:00+16св3448100 0.0 1016579
15:00+17всв4643100 0.0 10161186
18:00+16всв3852100 0.0 1015260
21:00+13всв61462100 0.0 1016686
16 апреля, пт
пт1600:00+10всв51382100 0.0 1018691
03:00+8всв51287100 0.1 1018522
06:00+7всв51289100 0.1 1019483
09:00+9всв5978100 0.2 1020557
12:00+13в586198 0.0 10201008
15:00+15всв6855100 0.0 10201377
18:00+13всв61061100 0.0 10201094
21:00+11всв61270100 0.0 1022857
17 апреля, сб
сб1700:00+9всв51277100 0.0 1022780
03:00+8всв51179100 0.0 1023674
06:00+7всв41082100 0.0 1024591
09:00+8всв5969100 0.0 1025606
12:00+12всв5857100 0.0 1024944
15:00+14всв685082 0.0 10251128
18:00+13всв59495 0.0 10241252
21:00+9всв411491 0.0 1026487
18 апреля, вс
вс1800:00+7всв412565 0.0 1027470
03:00+5св411640 0.0 1028383
06:00+4всв311700 0.0 1029365
09:00+9всв59490 0.0 1029825
12:00+12всв56400 0.0 10291450
15:00+13всв46334 0.0 10291813
18:00+12в36395 0.0 10291254
21:00+7всв27605 0.0 1030141
19 апреля, пн
пн1900:00+6всв27675 0.0 1031132
03:00+4всв26775 0.0 1032114
06:00+4всв27845 0.0 1033167
09:00+9в46615 0.0 1033615
12:00+12в564746 0.0 10331665
15:00+12в453969 0.0 10321899
18:00+11вюв464562 0.0 10321674
21:00+6в3106160 0.0 1033266